Regional Weather Roundup
Issued by NWS

Home | Current Version | Previous Version | Text Only | Print | Product List | Glossary Off
Versions: 1 2 3 4 5 6 7 8 9 10 11 12 13 14 15 16 17 18 19 20 21 22 23 24 25 26 27

000
ASUS45 KPSR 060010
RWRAZ

ARIZONA HOURLY REGIONAL WEATHER ROUNDUP
NATIONAL WEATHER SERVICE PHOENIX AZ
500 PM MST THU MAY 05 2016

NOTE: FAIR INDICATES FEW OR NO CLOUDS BELOW 12,000 FEET WITH NO
SIGNIFICANT WEATHER AND/OR OBSTRUCTIONS TO VISIBILITY.

AZZ001>003-036-060100-
NORTHWEST ARIZONA

CITY           SKY/WX    TMP DP  RH WIND       PRES   REMARKS
BULLHEAD CITY  MOSUNNY   90  27  10 S21G31    29.63F
KINGMAN        SUNNY     82  19   9 S25G38    29.75F
6HR MIN TEMP:  80; 6HR MAX TEMP:  85;

$$

AZZ004>008-015-016-018-060100-
NORTH CENTRAL ARIZONA

CITY           SKY/WX    TMP DP  RH WIND       PRES   REMARKS
GRAND CANYON   MOSUNNY   71  12  10 S15G28    29.97F
6HR MIN TEMP:  71; 6HR MAX TEMP:  74;

WILLIAMS       SUNNY     68  12  11 S21G39    30.04F
PRESCOTT       SUNNY     75  20  12 S16G26    29.88F
6HR MIN TEMP:  73; 6HR MAX TEMP:  77;

FLAGSTAFF      SUNNY     65  17  15 S16G25    30.01F
6HR MIN TEMP:  64; 6HR MAX TEMP:  68;

PAYSON         SUNNY     79  10   7 S10G18    29.94F
PAGE           MOSUNNY   86  21   9 S16G24    29.76F
6HR MIN TEMP:  76; 6HR MAX TEMP:  88;

$$

AZZ009>014-017-060100-
NORTHEAST ARIZONA

CITY           SKY/WX    TMP DP  RH WIND       PRES   REMARKS
WINSLOW        MOSUNNY   83  22  10 S22G35    29.87F
6HR MIN TEMP:  82; 6HR MAX TEMP:  87;

SAINT JOHNS    PTSUNNY   80  22  11 SW21G29   29.92F
6HR MIN TEMP:  79; 6HR MAX TEMP:  84;

WINDOW ROCK    CLOUDY    76  31  19 S14G23    30.01F
6HR MIN TEMP:  73; 6HR MAX TEMP:  80;

SHOW LOW       PTSUNNY   72  23  16 S25G36    29.99F
$$

AZZ023-060100-
GREATER PHOENIX AREA

CITY           SKY/WX    TMP DP  RH WIND       PRES   REMARKS
PHOENIX        PTSUNNY   96  23   7 SW15G24   29.65F
6HR MIN TEMP:  87; 6HR MAX TEMP:  97;

BUCKEYE        SUNNY     90  32  12 SW23G30   29.69F
GLENDALE       MOSUNNY   97  14   5 SE17      29.67F
LUKE AFB       SUNNY     94  21   7 SW25      29.65F
6HR MIN TEMP:  89; 6HR MAX TEMP:  97;

DEER VALLEY    SUNNY     94  23   8 S18G24    29.67F
6HR MIN TEMP:  86; 6HR MAX TEMP:  95;

SCOTTSDALE     SUNNY     94  18   6 S10G26    29.69F
6HR MIN TEMP:  87; 6HR MAX TEMP:  95;

MESA-FALCON    MOSUNNY  N/A N/A N/A S17G23    29.65F
MESA-GATEWAY   MOSUNNY   95  25   8 SW13G25   29.68F
CHANDLER       MOSUNNY   95  21   7 MISG      29.67F
$$

AZZ027-028-060100-
SOUTHWEST MARICOPA COUNTY AND PINAL COUNTY

CITY           SKY/WX    TMP DP  RH WIND       PRES   REMARKS
CASA GRANDE    SUNNY     95  30  10 S18G26    29.69F
6HR MIN TEMP:  90; 6HR MAX TEMP:  97;

GILA BEND      MOSUNNY   91  30  11 SW28G33   29.65F
6HR MIN TEMP:  91; 6HR MAX TEMP:  96;

$$

AZZ503-504-507>509-060100-
SOUTHEAST ARIZONA

CITY           SKY/WX    TMP DP  RH WIND       PRES   REMARKS
TUCSON         SUNNY     91  12   5 S24       29.79F
6HR MIN TEMP:  88; 6HR MAX TEMP:  94;

DAVIS-MONTHAN  SUNNY     91  15   6 S20G28    29.77F
6HR MIN TEMP:  85; 6HR MAX TEMP:  94;

RYAN FIELD     SUNNY     91  19   7 S17G32    29.78F
NOGALES        SUNNY     84  13   7 S25G35    29.89F
6HR MIN TEMP:  82; 6HR MAX TEMP:  88;

SIERRA VISTA   SUNNY     83   1   4 S16G26    29.95F
6HR MIN TEMP:  80; 6HR MAX TEMP:  85;

DOUGLAS        SUNNY     86   5   4 S20G36    29.91F
6HR MIN TEMP:  83; 6HR MAX TEMP:  90;

SAFFORD        PTSUNNY   94  12   5 S21G29    29.76F
6HR MIN TEMP:  86; 6HR MAX TEMP:  97;

$$

AZZ020-021-025-026-031-060100-
SOUTHWEST ARIZONA

CITY           SKY/WX    TMP DP  RH WIND       PRES   REMARKS
YUMA           MOSUNNY   85  40  20 SE22      29.67F
6HR MIN TEMP:  81; 6HR MAX TEMP:  89;

$$

CAZ031-033-041-043-047-048-061-060100-
SOUTHERN CALIFORNIA

CITY           SKY/WX    TMP DP  RH WIND       PRES   REMARKS
DOWNTOWN L.A.  CLOUDY    66  48  52 W5        29.87F
6HR MIN TEMP:  64; 6HR MAX TEMP:  68;

L.A. AIRPORT   MOSUNNY   67  45  45 W13G21    29.88F
6HR MIN TEMP:  63; 6HR MAX TEMP:  68;

SAN DIEGO      PTSUNNY   66  50  56 SW8       29.91F
6HR MIN TEMP:  65; 6HR MAX TEMP:  67;

ONTARIO        PTSUNNY   64  44  48 SW18G24   29.87F
6HR MIN TEMP:  62; 6HR MAX TEMP:  66;

RIVERSIDE      PTSUNNY   68  45  43 W7        29.85F
6HR MIN TEMP:  64; 6HR MAX TEMP:  69;

PALM SPRINGS   SUNNY     78  39  24 N22G33    29.74S
6HR MIN TEMP:  76; 6HR MAX TEMP:  81;

EL CENTRO NAS  LGT RAIN  80  38  22 W26G38    29.72F
6HR MIN TEMP:  80; 6HR MAX TEMP:  86;

IMPERIAL       MOSUNNY   78  39  24 W25G35    29.69F
6HR MIN TEMP:  78; 6HR MAX TEMP:  86;

BLYTHE         SUNNY     87  36  16 SW14G22   29.66F
6HR MIN TEMP:  82; 6HR MAX TEMP:  90;

NEEDLES        MOSUNNY   90  29  11 SW22G33   29.63F
6HR MIN TEMP:  87; 6HR MAX TEMP:  92;

$$

NVZ020-UTZ003-060100-
SOUTHERN NEVADA-UTAH

CITY           SKY/WX    TMP DP  RH WIND       PRES   REMARKS
LAS VEGAS      PTSUNNY   83  19   9 SE16G28   29.64F
6HR MIN TEMP:  80; 6HR MAX TEMP:  85;

SALT LAKE CITY CLOUDY    82  29  14 S16       29.77F
6HR MIN TEMP:  80; 6HR MAX TEMP:  84;

$$

NMZ009-TXZ055-060100-
NEW MEXICO-WEST TEXAS

CITY           SKY/WX    TMP DP  RH WIND       PRES   REMARKS
ALBUQUERQUE    MOSUNNY   81  24  12 S12       30.00F
6HR MIN TEMP:  74; 6HR MAX TEMP:  84;

EL PASO        MOSUNNY   89  30  12 SE14      29.91F
6HR MIN TEMP:  84; 6HR MAX TEMP:  91;

$$


........................KEY........................
SKY/WX - SKY CONDITION/WEATHER
TMP    - TEMPERATURE IN FAHRENHEIT
DP     - DEW POINT IN FAHRENHEIT
RH     - RELATIVE HUMIDITY IN PERCENT
WIND   - DIRECTION AND SPEED IN MILES PER HOUR (MPH)
VRB    - VARIABLE WIND DIRECTION
PRES   - MEAN SEA LEVEL PRESSURE IN INCHES OF MERCURY
         F - FALLING PRESSURE   R - RISING PRESSURE
         S - STEADY PRESSURE
VSB    - VISIBILITY IN MILES
HX     - HEAT INDEX IN FAHRENHEIT
WCI    - WIND CHILL INDEX IN FAHRENHEIT
TC     - TEMPERATURE IN CELSIUS WHICH IS ALSO KNOWN AS
         TEMPERATURE IN CENTIGRADE
AFB    - AIR FORCE BASE
         LUKE AFB IS LUKE AIR FORCE BASE
         DAVIS-MONTHAN IS DAVIS-MONTHAN AIR FORCE BASE
NAS    - NAVAL AIR STATION
         EL CENTRO NAS IS EL CENTRO NAVAL AIR STATION
N/A    - NOT AVAILABLE





USA.gov is the U.S. government's official web portal to all federal, state and local government web resources and services.